Regional Weather Roundup
Issued by NWS

Home | Current Version | Previous Version | Graphics & Text | Print | Product List | Glossary On
Versions: 1 2 3 4 5 6 7 8 9 10 11 12 13 14 15 16 17 18 19 20 21 22 23 24 25 26 27 28 29 30 31 32 33 34 35 36 37 38 39 40 41 42 43 44 45 46 47 48 49 50
000
ASUS45 KABQ 201201
RWRNM
WEATHER ROUNDUP FOR NEW MEXICO
NATIONAL WEATHER SERVICE ALBUQUERQUE NM
500 AM MST SAT DEC 20 2014

NOTE: "FAIR" MEANS FEW OR NO CLOUDS BELOW 12,000 FEET AGL WITH NO
       SIGNIFICANT WEATHER OR OBSTRUCTIONS TO VISION.

      THIS PRODUCT IS RELEASED AS TWO VERSIONS.  ONE VERSION NEAR
      THE TOP OF THE HOUR CONTAINING PRELIMINARY DATA FROM ALBUQUERQUE
      AND OTHER STATIONS.  A FINAL VERSION WITH ADDITIONAL DATA IS
      ISSUED ABOUT 10 MINUTES AFTER THE HOUR.

NMZ501-503-504-510>518-201300-
NORTHWEST PLATEAU/NORTHCENTRAL MOUNTAINS

CITY           SKY/WX    TMP DP  RH WIND       PRES   REMARKS
FARMINGTON     CLOUDY    26  23  88 N3        30.18S
6HR MIN TEMP:  24; 6HR MAX TEMP:  27;

SANTA FE       PTCLDY    24  17  74 N15       30.10F WCI  11
6HR MIN TEMP:  23; 6HR MAX TEMP:  27;

TAOS           PTCLDY    10   7  85 CALM      30.18S

$$
NMZ402-403-502-505>509-201300-
WESTCENTRAL MOUNTAINS/SOUTHWEST MOUNTAINS

CITY           SKY/WX    TMP DP  RH WIND       PRES   REMARKS
GALLUP         CLOUDY    24  21  88 E6        30.16F FOG     WCI  17
6HR MIN TEMP:  22; 6HR MAX TEMP:  26;

GRANTS         MOCLDY    18  17  95 NW3       30.18F
SILVER CITY    CLEAR     27  25  93 NW9       30.16F WCI  17

$$
NMZ407-409-411-412-201300-
SOUTHERN DESERTS

CITY           SKY/WX    TMP DP  RH WIND       PRES   REMARKS
LORDSBURG      FAIR      28  28 100 SW3       30.15F
DEMING         CLEAR     24  23  96 CALM      30.15F
6HR MIN TEMP:  24; 6HR MAX TEMP:  33;

HOLLOMAN AFB   CLEAR     26  23  89 CALM      30.14S
ALAMOGORDO     CLEAR     28  25  86 CALM      30.15S
T OR C         CLEAR     28  21  75 CALM      30.15F
6HR MIN TEMP:  28; 6HR MAX TEMP:  36;


$$
NMZ519>523-201300-
CENTRAL VALLEYS/CENTRAL HIGHLANDS

CITY           SKY/WX    TMP DP  RH WIND       PRES   REMARKS
ALBUQUERQUE    PTCLDY    28  23  81 SW3       30.17F
6HR MIN TEMP:  28; 6HR MAX TEMP:  35;

MORIARTY ARPT  FAIR      23  19  84 N7        30.12F WCI  14
6HR MIN TEMP:  16; 6HR MAX TEMP:  26;

CLINES CORNERS CLEAR     24  18  77 NW24      30.04F WCI   8
6HR MIN TEMP:  23; 6HR MAX TEMP:  25;

BELEN          FAIR      22  19  91 N5        30.17F WCI  15
6HR MIN TEMP:  20; 6HR MAX TEMP:  28;

SOCORRO        FAIR      23  20  90 CALM      30.17F
6HR MIN TEMP:  22; 6HR MAX TEMP:  28;


$$
NMZ524>526-539-540-201300-
SOUTHCENTRAL MOUNTAINS

CITY           SKY/WX    TMP DP  RH WIND       PRES   REMARKS
RUIDOSO        CLEAR     30  18  59 NW13G22   30.11S WCI  20

$$
NMZ527>531-201300-
NORTHEAST HIGHLANDS/NORTHEAST PLAINS

CITY           SKY/WX    TMP DP  RH WIND       PRES   REMARKS
LAS VEGAS      PTCLDY    20   9  62 N5        30.04F WCI  13
6HR MIN TEMP:  18; 6HR MAX TEMP:  29;

RATON          PTCLDY    18  14  84 NE7       30.05F WCI   9
6HR MIN TEMP:  15; 6HR MAX TEMP:  23;

CLAYTON        CLEAR     31  24  75 W10       30.04S WCI  22
6HR MIN TEMP:  26; 6HR MAX TEMP:  32;


$$
NMZ532>537-201300-
EASTCENTRAL PLAINS

CITY           SKY/WX    TMP DP  RH WIND       PRES   REMARKS
TUCUMCARI      FOG       21  19  92 NW7       30.06S VSB 1/4 WCI  12
6HR MIN TEMP:  19; 6HR MAX TEMP:  31;

CANNON AFB     CLEAR     21  19  93 E1        30.07F FOG
CLOVIS AIRPORT CLOUDY    25  21  86 S3        30.08S VSB 1/4

$$
NMZ028-029-538-201300-
SOUTHEAST PLAINS

CITY           SKY/WX    TMP DP  RH WIND       PRES   REMARKS
ROSWELL        MOCLDY    29  21  72 W5        30.11F WCI  24
6HR MIN TEMP:  24; 6HR MAX TEMP:  34;

ARTESIA        PTCLDY    28  25  86 CALM      30.12S
CARLSBAD       PTCLDY    28  22  78 NW6       30.10S WCI  22
6HR MIN TEMP:  28; 6HR MAX TEMP:  38;

HOBBS          FOG       36  36 100 E3        30.12F VSB 1/4


$$



USA.gov is the U.S. government's official web portal to all federal, state and local government web resources and services.